Content
SEND FEEDBACK

Daily
Averages
Monthly
Summary
United States of America

HETTINGER, NORTH DAKOTA


Home > North America > United States > North Dakota
Elevation: 2715 feet     Latitude: 45 59N     Longitude: 102 39W

WEATHER
 
SELECT A DAY
Number of Records: 188,847;   Date Range: 7/1/96 - 7/23/14
 
SHARE

PRINT THIS DATA

[ ← Previous Day ]
WEATHER ALMANAC - JUNE 7, 2014
[ Next Day → ]
[ °C ]   °F
Weather ElementAverageHighLow
Temperature53.7 °F63 °F (3:53 pm)43 °F (3:53 am)
Dewpoint41.8 °F45 °F (7:53 pm)37.9 °F (11:53 am)
Humidity66.6 %93 % (3:53 am)46 % (4:53 pm)
Barometer30.16 in30.22 in (1:53 am)30.11 in (6:53 pm)
Wind Speed5.7 mph10.4 mph (3:53 pm)
Weather ElementAverage
Visibility10 mi
Wind DirectionSSE (152 °)

Weather ElementTotal
Precipitation---
Heating Degree Days12 (Base 65)
Growing Degree Days3 (Base 50)
Averaged from 20 records on June 7, 2014
WEATHER CONDITIONS BREAKOUT
WIND DIRECTION BREAKOUT
WEATHER BY HOUR - JUNE 7, 2014
[ °C ]   °F
Local TimeTemperatureDewpointHumidityBarometerVisibilityWind DirectionWind SpeedGust SpeedPrecipitationEventsConditions
1:53 AM45.0 °F42.1 °F90 %30.22 in10.0 miWNW (300°)8.1 mphOvercast
2:53 AM45.0 °F42.1 °F90 %30.21 in10.0 miWNW (290°)5.8 mph0.00 inRainLight Rain
3:53 AM43.0 °F41.0 °F93 %30.21 in10.0 miWNW (300°)5.8 mph0.00 inOvercast
4:53 AM44.1 °F41.0 °F89 %30.22 in10.0 miWest (270°)4.6 mphOvercast
6:53 AM46.9 °F42.1 °F83 %30.21 in10.0 miNW (320°)5.8 mphOvercast
9:53 AM55.9 °F39.9 °F55 %30.19 in10.0 miEast (80°)3.5 mphScattered Clouds
10:53 AM57.9 °F39.9 °F51 %30.18 in10.0 miVariable4.6 mphMostly Cloudy
11:53 AM57.0 °F37.9 °F49 %30.18 in10.0 miCalmOvercast
12:53 PM57.0 °F41.0 °F55 %30.16 in10.0 miSouth (190°)3.5 mphOvercast
1:53 PM60.1 °F39.9 °F47 %30.15 in10.0 miVariable3.5 mphOvercast
2:53 PM59.0 °F41.0 °F51 %30.15 in10.0 miNorthMostly Cloudy
3:53 PM63.0 °F43.0 °F48 %30.13 in10.0 miSSE (160°)10.4 mphPartly Cloudy
4:53 PM63.0 °F42.1 °F46 %30.12 in10.0 miSSE (160°)6.9 mphClear
5:53 PM62.1 °F43.0 °F50 %30.12 in10.0 miSouth (190°)10.4 mphPartly Cloudy
6:53 PM60.1 °F43.0 °F53 %30.11 in10.0 miSouth (170°)8.1 mphClear
7:53 PM57.0 °F45.0 °F64 %30.11 in10.0 miSSE (160°)5.8 mphClear
8:53 PM52.0 °F44.1 °F74 %30.12 in10.0 miSSE (150°)5.8 mphClear
9:53 PM50.0 °F44.1 °F80 %30.13 in10.0 miSSE (150°)6.9 mphClear
10:53 PM48.0 °F42.1 °F80 %30.13 in10.0 miSSE (150°)8.1 mphClear
11:53 PM46.9 °F42.1 °F83 %30.13 in10.0 miCalmClear
Hourly data recorded from KHEI, located miles away from Hettinger, North Dakota







STORIES FROM OUR PARTNERS